Date,TemperatureHighF,TemperatureAvgF,TemperatureLowF,DewpointHighF,DewpointAvgF,DewpointLowF,HumidityHigh,HumidityAvg,HumidityLow,PressureMaxIn,PressureMinIn,WindSpeedMaxMPH,WindSpeedAvgMPH,GustSpeedMaxMPH,PrecipitationSumIn
2013-1-1,47.4,45.6,42.4,46.0,39.2,30.0,97,80,52,30.08,29.90,6,1,15,0.24
2013-1-2,46.4,42.7,38.3,46.0,40.7,37.0,97,93,82,30.17,29.91,6,1,10,0.02
2013-1-3,42.9,37.9,28.1,38.0,35.5,27.0,96,91,78,30.25,30.13,3,0,6,0.02
2013-1-4,49.6,37.4,26.4,29.0,26.0,21.0,95,67,40,30.31,30.17,7,1,11,0.01
2013-1-5,49.1,37.9,25.4,32.0,26.1,21.0,84,64,44,30.38,30.24,3,0,7,0.01
2013-1-6,50.0,42.2,35.7,38.0,35.1,31.0,91,76,62,30.24,30.04,5,1,7,0.00
2013-1-7,51.0,39.1,28.9,35.0,31.1,27.0,91,75,51,30.42,30.16,6,0,9,0.00
2013-1-8,52.8,38.3,26.2,40.0,33.4,25.0,95,83,58,30.46,30.36,3,0,4,0.00
2013-1-9,66.3,49.1,32.5,54.0,43.3,31.0,96,82,62,30.43,30.33,5,0,13,0.00
2013-1-10,62.5,51.8,42.4,48.0,44.3,38.0,95,77,56,30.51,30.39,5,0,7,0.00
2013-1-11,48.5,45.1,40.6,48.0,42.1,35.0,97,89,65,30.42,30.13,3,0,5,0.20
2013-1-12,69.5,56.8,48.6,64.0,55.2,48.0,98,94,80,30.15,30.07,5,0,6,0.21
2013-1-13,74.3,63.0,53.2,63.0,58.3,52.0,98,86,65,30.11,30.02,7,1,13,0.01
2013-1-14,65.8,62.7,54.0,63.0,59.8,53.0,98,90,81,30.13,30.05,7,1,15,0.10
2013-1-15,53.1,44.1,42.5,52.0,43.2,42.0,97,96,95,30.22,30.05,7,1,13,0.03
2013-1-16,48.7,44.4,40.6,48.0,43.7,40.0,98,97,97,30.07,29.95,3,1,7,0.12
2013-1-17,49.3,45.1,32.3,49.0,44.5,31.0,98,97,94,30.13,29.89,8,2,22,0.97
2013-1-18,44.8,35.2,26.8,33.0,28.9,25.0,97,80,47,30.52,30.12,5,1,11,0.24
2013-1-19,52.9,36.5,22.7,32.0,27.8,21.0,95,74,41,30.49,30.14,6,1,10,0.24
2013-1-20,62.6,48.5,37.8,39.0,33.9,29.0,78,59,39,30.13,29.96,14,2,21,0.00
2013-1-21,59.0,44.0,27.1,36.0,28.8,19.0,95,60,35,30.07,29.84,12,1,14,0.00
2013-1-22,42.3,32.6,23.7,19.0,8.9,3.0,47,38,25,30.27,29.93,13,2,16,0.00
2013-1-23,41.0,28.3,15.6,17.0,12.1,5.0,81,53,35,30.37,30.05,10,1,15,0.00
2013-1-24,35.1,30.4,22.1,23.0,13.4,4.0,70,51,33,30.51,29.95,13,2,23,0.00
2013-1-25,26.6,22.9,18.3,25.0,14.8,6.0,92,73,46,30.52,30.11,5,0,8,0.00
2013-1-26,34.7,29.1,25.1,32.0,27.3,24.0,94,93,89,30.40,30.08,4,0,6,0.16
2013-1-27,40.0,29.7,20.8,29.0,24.9,19.0,95,83,60,30.60,30.39,4,0,8,0.05
2013-1-28,50.7,41.4,28.9,48.0,36.3,26.0,94,83,65,30.50,30.21,7,1,13,0.02
2013-1-29,73.8,59.4,46.7,59.0,52.8,45.0,95,80,58,30.22,30.03,6,2,14,0.02
2013-1-30,72.5,67.7,61.7,65.0,62.7,58.0,92,84,74,30.03,29.36,20,6,31,0.16
2013-1-31,62.2,46.5,35.0,58.0,31.3,22.0,91,58,36,29.98,29.41,16,5,36,0.35
2013-2-1,40.3,34.0,25.2,29.0,15.1,7.0,68,47,31,30.38,29.85,16,3,30,0.00
2013-2-2,44.2,32.2,16.8,32.0,14.6,8.0,78,50,34,30.39,30.01,9,1,19,0.00
2013-2-3,47.8,40.9,33.1,35.0,29.5,24.0,92,66,48,30.01,29.83,10,2,16,0.00
2013-2-4,48.1,37.5,24.5,28.0,23.6,20.0,85,59,40,30.13,29.98,6,1,10,0.00
2013-2-5,59.3,46.6,39.0,37.0,33.1,29.0,78,61,42,29.98,29.86,11,2,12,0.00
2013-2-6,60.2,44.4,29.3,36.0,30.7,27.0,94,63,33,30.27,29.95,8,1,15,0.00
2013-2-7,46.8,39.9,33.3,41.0,35.5,30.0,96,84,70,30.32,30.00,5,1,10,0.58
2013-2-8,54.2,44.7,37.9,46.0,38.9,29.0,96,81,54,30.02,29.79,10,3,25,1.08
2013-2-9,51.7,39.6,27.4,29.0,24.2,21.0,82,57,31,30.34,30.02,6,1,14,0.00
2013-2-10,52.0,37.2,22.5,40.0,25.1,20.0,92,66,34,30.48,30.20,6,1,12,0.04
2013-2-11,62.4,55.5,43.7,60.0,53.2,41.0,97,92,85,30.19,29.89,9,2,16,0.04
2013-2-12,60.2,52.8,45.5,53.0,36.5,30.0,89,56,35,30.06,29.89,10,2,16,0.04
2013-2-13,47.8,44.8,42.0,45.0,42.4,35.0,96,91,68,29.93,29.60,5,1,15,0.25
2013-2-14,51.1,41.4,30.4,36.0,33.1,29.0,95,74,50,30.05,29.81,7,1,10,0.25
2013-2-15,62.0,44.7,27.4,41.0,33.5,26.0,96,69,38,30.07,29.91,4,1,15,0.00
2013-2-16,44.7,35.6,29.8,34.0,31.9,27.0,95,87,66,29.96,29.82,7,1,12,0.43
2013-2-17,36.6,29.3,22.6,28.0,14.6,9.0,90,56,35,30.27,29.90,21,3,25,0.43
2013-2-18,51.5,34.3,15.4,27.0,19.2,13.0,92,58,32,30.41,30.25,8,1,14,0.00
2013-2-19,49.9,42.4,34.4,48.0,37.6,27.0,95,83,60,30.24,29.84,9,2,20,0.16
2013-2-20,51.5,41.0,30.3,38.0,21.2,17.0,90,48,26,30.13,29.94,11,2,17,0.16
2013-2-21,52.3,39.3,23.8,26.0,21.2,18.0,80,51,30,30.25,30.10,5,1,11,0.00
2013-2-22,40.8,35.0,31.3,34.0,30.9,23.0,95,85,49,30.34,30.13,3,0,7,0.19
2013-2-23,42.6,39.0,35.3,41.0,38.0,34.0,97,96,95,30.11,29.80,3,0,12,0.46
2013-2-24,62.5,48.8,36.9,46.0,37.5,28.0,97,69,35,30.02,29.78,9,1,14,0.01
2013-2-25,41.2,36.0,30.8,29.0,25.3,23.0,83,66,52,30.21,30.02,7,1,10,0.01
2013-2-26,55.3,43.4,31.2,55.0,40.4,25.0,97,89,70,30.14,29.54,10,2,17,0.69
2013-2-27,59.8,49.2,41.8,45.0,40.4,37.0,96,74,47,29.75,29.59,11,2,16,0.69
2013-2-28,48.4,42.2,33.4,39.0,31.9,27.0,90,68,48,29.84,29.67,7,1,17,0.00
2013-3-1,48.0,39.6,28.8,32.0,28.6,26.0,88,66,48,29.89,29.82,9,1,14,0.00
2013-3-2,46.1,38.5,29.9,29.0,26.1,19.0,87,62,48,29.90,29.79,10,1,15,0.00
2013-3-3,45.6,35.4,28.3,24.0,20.4,17.0,69,56,40,29.97,29.82,12,2,16,0.00
2013-3-4,50.3,36.1,24.9,24.0,18.0,13.0,73,50,29,30.10,29.96,8,2,16,0.00
2013-3-5,48.7,40.8,32.1,43.0,35.3,24.0,96,82,50,30.07,29.55,5,1,12,0.36
2013-3-6,45.9,40.8,35.4,41.0,32.9,28.0,96,75,58,30.01,29.49,16,4,30,0.01
2013-3-7,50.0,41.4,33.9,33.0,29.4,26.0,79,64,50,30.22,30.01,12,2,16,0.01
2013-3-8,54.8,43.3,32.3,30.0,27.1,25.0,75,55,37,30.27,30.13,16,2,22,0.00
2013-3-9,40.2,38.2,37.1,28.0,27.2,27.0,66,64,61,30.28,30.26,0,0,5,0.00